Temp
6 6 6 6 6 6 6 7 7 6 6 7 7 7 8 8 8 8 8 8 8 8 8 8 8 9 9 9 9 9 9 9 9 9 9 9 9 9 9 9 9 9 9 9 9 9 9 9 9 9 9 9 9 9 9 9 9 9 9 8 8 8 8 8 8 8 7 7 7 7 7 7 7 7 7 7 7 7 7 7 7 7 7 7 7 7
6 6 6 6 6 6 6 6 7 7 6 6 7 7 7 7 7 7 8 8 8 8 8 8 8 8 8 8 9 9 9 9 9 9 9 9 9 9 9 9 9 9 9 9 9 9 9 9 9 9 9 9 9 9 9 9 9 9 9 8 8 8 8 8 8 8 7 7 7 7 7 7 7 7 7 7 7 7 7 7 7 7 7 7 7 7
6 6 6 6 6 6 6 6 6 7 7 7 7 7 7 7 7 7 7 7 7 8 8 8 8 8 8 8 8 8 8 8 9 9 9 9 9 9 9 9 9 8 8 8 8 8 8 8 8 8 8 8 8 8 8 8 8 8 8 8 8 8 8 8 8 7 7 7 7 7 7 7 7 7 7 7 7 7 6 6 6 6 6 7 7 7
6 6 6 6 6 6 6 6 7 7 7 7 7 7 7 7 7 7 7 7 7 7 7 7 7 8 8 8 8 8 8 8 8 8 8 8 8 8 8 8 8 8 8 8 8 8 8 8 8 8 8 8 8 8 8 8 8 8 8 8 7 7 7 7 7 7 7 7 7 7 7 7 7 6 6 6 6 6 6 6 6 6 6 6 7 7
6 6 6 6 6 6 6 7 7 7 7 8 8 8 8 8 8 8 8 8 7 7 7 7 7 7 7 8 8 8 8 8 8 8 8 8 8 8 8 8 8 8 8 8 7 7 7 7 7 7 7 7 7 7 7 7 7 7 7 7 7 7 7 7 6 6 6 6 6 6 6 6 6 6 6 6 6 6 6 6 6 6 6 6 6 7
6 6 6 6 6 6 6 7 7 7 7 7 7 7 8 8 8 8 8 8 7 7 7 7 7 7 7 7 7 8 8 8 8 8 8 8 8 8 8 8 7 7 7 7 7 7 7 7 7 7 7 7 7 7 7 6 6 6 6 6 6 6 6 6 6 6 6 6 6 6 6 6 6 6 6 6 6 6 6 6 6 6 6 6 6 6
6 6 6 6 6 6 6 6 7 7 6 6 6 6 7 7 7 7 7 7 7 7 7 7 7 7 7 7 7 7 7 8 8 8 8 8 8 8 8 8 7 7 7 7 7 7 6 6 6 6 6 6 6 6 6 6 6 6 6 6 6 6 6 6 6 6 6 6 6 6 6 6 6 6 6 6 6 6 6 6 6 6 6 6 6 6
7 6 6 6 6 6 6 6 6 6 6 5 5 6 6 6 6 6 6 6 7 7 7 7 7 6 6 6 6 7 7 7 7 7 7 7 7 7 7 7 7 7 7 7 6 6 6 6 6 6 6 6 6 6 6 6 6 6 6 6 6 6 6 6 6 6 6 6 6 6 6 5 5 5 5 5 5 5 5 5 5 5 5 6 6 6
7 6 6 6 6 6 6 6 5 5 5 5 5 5 6 6 6 6 6 6 6 6 6 5 5 6 6 6 6 6 6 6 6 6 7 7 7 7 6 6 6 6 6 6 6 6 6 6 6 6 6 6 6 6 6 6 6 6 6 6 6 5 5 5 5 5 5 5 5 5 5 5 5 5 5 5 5 5 5 5 5 5 5 5 5 6
6 6 6 6 5 5 6 6 5 5 5 5 5 5 5 5 6 6 6 6 5 5 5 5 5 5 5 5 5 5 5 5 6 6 6 6 6 6 6 6 6 6 6 6 6 6 6 7 7 7 7 7 7 7 7 7 6 6 6 6 5 5 5 5 5 5 5 5 5 5 5 5 5 4 4 4 4 4 4 4 4 4 4 5 5 5
6 6 6 6 5 5 5 5 5 4 5 4 4 4 4 4 5 5 5 6 6 6 5 5 5 5 5 5 5 5 5 5 5 5 5 6 6 6 6 6 6 6 6 6 6 6 7 7 7 7 7 7 7 7 7 7 6 6 6 6 5 5 5 5 4 4 4 4 4 4 4 4 4 4 4 4 4 4 4 4 4 4 4 4 4 4
6 6 6 6 6 5 5 5 4 4 4 4 5 5 5 4 4 4 5 5 5 5 5 5 5 5 4 4 4 4 4 4 4 4 5 5 5 5 5 5 5 5 5 5 5 6 6 6 6 7 7 7 7 7 7 6 6 6 5 5 5 5 4 4 4 4 4 4 4 4 4 4 4 4 4 4 4 4 4 4 4 3 4 4 4 4
5 5 5 5 6 6 5 5 5 5 5 5 6 6 6 5 4 4 4 4 5 5 5 5 5 4 4 4 4 4 4 4 4 4 4 4 4 4 4 4 4 4 4 4 4 5 5 5 6 6 6 7 7 7 7 6 6 5 5 4 4 4 4 4 4 3 3 3 3 3 3 3 3 3 3 3 3 3 3 3 3 3 3 3 3 4
5 5 5 6 6 6 6 6 6 6 6 6 5 5 5 4 4 4 4 4 4 4 4 4 4 5 5 4 4 4 4 4 4 4 4 4 4 4 4 4 4 4 4 4 4 4 4 4 5 5 6 6 7 7 6 6 5 5 5 4 4 4 4 3 3 3 3 3 3 3 3 3 3 3 3 3 3 3 3 3 3 3 3 3 3 3
5 5 6 6 6 6 6 5 5 6 6 5 5 4 4 4 4 4 4 4 4 4 4 4 5 5 5 5 5 4 4 4 4 4 4 4 4 4 4 4 4 4 4 4 4 4 4 4 4 4 5 5 6 6 6 6 5 5 5 5 4 4 4 3 3 3 3 3 3 3 3 3 3 3 3 3 3 3 3 3 3 3 3 3 3 3
5 5 5 6 6 6 5 5 5 5 5 5 4 4 4 4 4 4 4 4 4 4 4 5 5 5 5 5 5 5 4 4 4 4 4 4 4 4 4 3 3 3 3 3 4 4 4 4 4 4 4 4 5 5 5 5 5 5 5 5 4 4 3 3 3 3 3 3 3 3 3 3 3 3 3 3 3 3 3 3 3 3 3 3 3 3
4 5 5 5 5 5 5 5 4 4 4 4 4 3 3 4 4 4 4 4 4 4 4 4 5 5 5 5 5 4 4 4 3 3 4 4 4 4 3 3 3 3 3 3 3 3 4 4 4 4 4 4 4 4 4 4 5 5 5 4 4 4 4 3 3 3 3 3 3 3 3 3 3 3 3 3 3 3 3 3 3 3 3 3 3 3
4 4 4 5 5 5 5 4 4 4 4 4 4 3 3 3 3 3 3 3 4 4 4 4 4 4 5 5 5 5 4 3 3 3 3 3 4 4 4 3 3 3 3 3 3 3 3 4 4 4 4 4 3 3 3 4 4 4 4 4 4 4 3 3 3 3 3 3 3 3 3 3 3 3 3 3 3 3 3 3 3 3 3 3 3 3
4 4 4 5 5 5 4 4 4 4 4 4 3 3 3 3 3 3 3 3 3 3 3 4 4 4 4 4 5 4 4 3 3 3 3 3 4 4 4 3 3 3 3 3 3 4 4 4 4 3 3 3 3 3 3 3 3 4 4 4 4 4 3 3 3 3 3 3 3 3 3 3 3 3 3 3 3 3 3 3 3 3 3 3 3 3
4 4 4 4 4 4 4 4 4 4 3 3 3 3 3 3 3 3 3 3 3 3 3 3 3 4 4 4 4 4 3 3 3 3 3 4 4 4 4 4 4 4 4 4 4 4 4 4 4 4 4 3 3 3 3 3 3 3 3 3 3 3 3 3 3 3 3 3 3 3 3 3 3 3 3 3 3 3 3 3 3 3 3 3 3 3
4 4 4 4 4 4 4 4 3 3 3 2 2 2 2 2 3 3 3 3 3 3 3 3 3 3 3 4 4 3 3 3 3 3 3 3 4 4 4 4 4 4 4 5 4 4 4 4 4 4 4 4 3 3 3 3 3 3 3 3 3 3 3 3 3 3 3 3 3 3 3 3 3 3 3 3 3 3 3 3 3 3 3 3 3 3
3 3 3 3 3 3 3 3 3 2 2 2 2 2 2 2 2 2 3 3 3 3 3 3 3 3 3 3 3 3 3 3 3 3 3 3 4 4 4 4 4 4 4 5 4 4 4 4 4 4 4 4 3 3 3 3 3 3 3 3 3 3 3 3 3 3 3 3 3 3 3 3 3 3 3 3 3 3 3 3 3 3 3 3 2 2
3 3 3 3 3 3 2 2 2 2 2 2 2 2 2 2 2 2 2 2 2 2 2 2 2 2 2 2 3 3 3 3 3 3 3 3 4 4 4 4 4 4 4 4 4 4 4 4 4 4 4 3 3 3 3 3 3 3 3 3 3 3 3 3 3 3 3 3 3 3 3 3 3 3 3 3 3 3 3 3 4 3 3 3 3 3
2 2 2 2 2 2 2 2 2 2 2 2 2 2 2 2 2 2 2 2 2 2 2 2 2 2 2 2 3 3 3 3 3 3 3 3 4 4 4 4 4 4 4 4 4 4 4 3 3 3 3 3 3 3 3 3 2 3 3 3 3 3 3 3 3 3 3 3 3 3 2 2 3 3 3 3 3 3 3 4 4 4 4 4 3 3
2 2 2 2 2 1 1 2 2 2 2 2 2 2 2 2 2 2 2 2 2 2 2 2 2 3 3 3 3 3 3 3 3 3 3 3 3 3 3 3 3 4 4 4 3 3 3 3 3 3 3 3 3 3 3 3 3 3 3 3 3 3 3 3 3 3 3 3 3 3 3 3 3 3 3 3 3 3 3 3 3 3 3 3 3 3
1 1 1 1 1 1 1 1 1 1 1 1 2 2 2 2 2 2 2 2 2 2 3 3 3 3 3 3 4 4 4 3 3 3 3 3 3 3 3 3 3 3 3 3 3 3 3 3 3 3 3 3 3 3 3 3 3 3 3 3 3 3 3 3 3 3 3 3 3 3 3 3 3 3 3 2 2 2 3 3 3 3 3 3 3 3
1 1 1 1 1 1 1 1 1 1 1 1 1 1 1 2 2 2 2 3 3 3 3 3 3 3 3 3 3 3 3 3 3 3 3 2 3 3 3 3 3 3 3 3 3 3 3 3 3 3 3 3 3 3 3 3 3 3 3 3 3 3 3 3 3 3 3 3 3 3 3 3 3 3 2 2 2 2 2 2 2 2 2 2 2 3
1 1 1 1 1 1 1 1 1 1 1 1 1 1 1 1 2 2 2 2 2 2 2 3 3 3 3 3 3 3 3 3 3 3 3 3 3 3 3 3 3 3 3 3 3 3 3 3 3 3 3 3 3 3 3 3 3 3 3 2 2 2 2 2 3 3 3 3 3 3 3 3 3 3 2 2 2 2 2 2 2 2 2 2 2 3
1 1 1 1 1 1 1 1 1 1 1 1 1 1 1 1 1 1 2 2 2 2 2 2 2 2 2 2 2 2 2 2 3 3 3 3 3 3 3 3 3 3 3 3 3 3 3 3 3 3 3 3 3 3 3 2 2 2 2 2 2 2 2 2 2 2 2 3 3 3 3 3 3 3 3 3 2 2 2 2 2 2 2 2 2 3
1 1 1 1 1 1 1 1 1 1 0 0 0 0 0 0 1 1 1 1 1 1 2 2 2 2 2 2 2 2 2 3 3 2 2 2 2 2 2 2 2 2 2 2 2 2 3 3 3 3 3 3 2 2 2 2 2 2 2 2 2 2 2 2 2 2 2 2 2 2 2 3 3 3 3 2 2 2 2 2 2 2 2 2 2 3
1 1 1 1 1 1 1 1 1 0 0 0 0 0 0 0 0 0 1 1 1 1 1 1 1 1 1 2 2 2 2 3 2 2 2 2 2 2 2 2 2 2 2 2 2 2 2 2 2 2 2 2 2 2 2 2 2 2 2 2 2 2 2 2 2 2 2 2 2 2 2 2 2 2 2 2 2 2 2 2 2 2 2 2 2 2
1 1 1 1 1 1 0 0 0 0 0 0 0 0 -0 -0 -0 -0 -0 0 0 0 0 1 1 1 1 1 1 2 2 2 2 1 1 1 1 1 1 1 1 1 1 1 1 1 2 2 2 2 1 1 1 1 1 1 2 2 2 2 2 2 2 2 2 2 2 2 2 2 2 2 2 2 2 2 2 2 2 2 2 2 2 2 2 2
1 0 0 0 0 0 0 0 0 0 -0 -0 -0 -0 -0 -0 -0 -1 -1 -0 -0 -0 -0 -0 0 0 0 1 1 1 1 1 1 1 1 1 1 1 1 1 1 1 1 1 1 1 1 1 1 1 1 1 1 1 1 1 2 2 2 2 2 2 2 2 2 2 2 2 2 2 2 2 2 2 2 2 2 2 2 2 2 2 2 2 2 2
-0 -0 -0 -0 -0 -0 -0 -0 -0 -0 -0 -0 -0 -1 -1 -1 -1 -1 -1 -1 -1 -1 -1 -0 -0 -0 0 0 0 0 0 0 0 0 0 0 0 1 1 1 1 0 0 0 0 0 0 0 0 0 1 1 1 1 1 1 1 1 1 1 1 2 2 2 2 2 2 2 2 2 2 2 2 2 2 2 2 2 2 2 2 2 2 2 2 2
-0 -1 -1 -1 -0 -0 -1 -1 -1 -1 -1 -1 -1 -1 -1 -1 -1 -1 -1 -1 -1 -1 -1 -1 -1 -1 -1 -0 -0 -0 -0 0 0 0 0 -0 -0 -0 -0 -0 -0 -0 -0 -0 -0 -0 -0 -0 0 0 0 1 1 1 1 1 1 1 1 1 2 2 2 2 2 2 2 2 2 2 2 2 2 2 2 2 2 2 2 2 2 1 1 1 1 1
-1 -1 -1 -1 -1 -0 -0 -0 -0 -1 -1 -1 -1 -1 -1 -1 -1 -1 -1 -1 -1 -1 -1 -1 -1 -1 -1 -1 -1 -1 -1 -1 -1 -0 -1 -1 -1 -1 -1 -1 -1 -1 -1 -1 -1 -1 -1 -0 -0 -0 -0 0 0 1 1 1 1 1 1 2 2 2 2 2 2 2 2 2 2 2 2 2 2 2 2 2 2 2 2 1 1 1 1 1 1 1
-1 -1 -1 -0 -0 -0 -0 -0 -1 -1 -1 -1 -1 -1 -1 -1 -1 -1 -1 -1 -2 -2 -2 -2 -2 -2 -2 -1 -1 -1 -1 -1 -1 -1 -1 -1 -1 -1 -1 -1 -1 -1 -1 -1 -1 -1 -1 -1 -0 -0 -0 0 0 1 1 1 1 1 1 1 2 2 2 2 2 2 2 2 2 2 2 2 2 2 2 2 2 1 1 1 1 1 1 1 1 1
-1 -1 -1 -1 -1 -1 -1 -1 -1 -1 -1 -1 -1 -1 -1 -1 -1 -1 -1 -2 -2 -2 -2 -2 -2 -2 -2 -2 -2 -2 -2 -2 -2 -2 -2 -2 -2 -2 -2 -1 -1 -1 -1 -1 -1 -1 -1 -1 -1 -0 -0 0 0 1 1 1 1 1 1 1 1 1 1 1 1 1 1 2 2 2 2 2 2 2 2 2 2 1 1 1 1 1 1 1 1 1
-1 -1 -1 -1 -1 -1 -1 -1 -1 -1 -1 -1 -1 -1 -1 -1 -1 -2 -2 -2 -2 -2 -2 -2 -2 -2 -2 -2 -2 -2 -2 -2 -2 -2 -2 -2 -2 -2 -2 -2 -2 -2 -2 -1 -1 -1 -1 -1 -1 -0 -0 0 0 0 0 0 0 1 1 1 1 1 1 1 1 1 1 2 2 2 2 2 2 2 2 2 1 1 1 1 1 1 1 1 1 0
-1 -1 -1 -1 -1 -1 -1 -1 -1 -1 -1 -1 -1 -1 -1 -1 -2 -2 -2 -2 -2 -2 -2 -2 -2 -2 -2 -2 -2 -2 -2 -2 -2 -2 -2 -2 -2 -2 -2 -2 -2 -2 -2 -2 -2 -2 -2 -1 -1 -1 -1 -0 -0 -0 -0 -0 0 0 0 0 0 1 1 1 1 1 1 2 2 2 2 2 2 1 1 1 1 1 1 1 1 1 1 1 1 0
-1 -1 -1 -1 -1 -1 -1 -1 -1 -1 -1 -1 -1 -2 -2 -2 -2 -2 -2 -2 -2 -2 -2 -2 -2 -2 -2 -2 -2 -2 -2 -2 -2 -2 -2 -2 -2 -2 -2 -2 -2 -2 -2 -2 -2 -2 -2 -2 -1 -1 -1 -1 -1 -0 -0 -0 -0 -0 0 0 0 0 1 1 1 1 1 1 2 2 1 1 1 1 1 1 1 1 1 1 1 1 1 1 0 0
-1 -1 -1 -1 -1 -1 -1 -1 -1 -2 -2 -2 -2 -2 -2 -2 -2 -2 -2 -2 -2 -2 -2 -2 -2 -2 -2 -2 -2 -2 -2 -2 -2 -2 -2 -2 -2 -2 -2 -2 -2 -2 -2 -2 -2 -2 -2 -2 -1 -1 -1 -1 -1 -1 -1 -0 -0 -0 -0 0 0 0 0 1 1 1 1 1 2 1 1 1 1 1 1 1 1 1 1 1 1 0 0 0 -0 -0
-1 -1 -1 -1 -2 -2 -2 -2 -2 -2 -2 -2 -2 -2 -2 -2 -2 -2 -2 -2 -2 -2 -2 -2 -2 -2 -1 -1 -1 -1 -2 -2 -2 -2 -2 -2 -2 -2 -2 -2 -2 -2 -2 -2 -2 -2 -2 -2 -2 -1 -1 -1 -1 -1 -1 -1 -0 -0 -0 0 0 0 0 1 1 1 1 1 2 2 1 1 1 1 1 1 1 1 1 0 0 -0 -0 -0 -1 -1
-2 -2 -2 -2 -2 -2 -2 -2 -2 -2 -2 -2 -2 -2 -2 -2 -2 -2 -2 -2 -2 -2 -2 -2 -2 -2 -2 -2 -1 -1 -1 -1 -2 -2 -2 -2 -2 -2 -2 -2 -2 -2 -2 -2 -2 -2 -2 -2 -1 -1 -1 -1 -1 -1 -1 -0 -0 -0 0 0 0 0 0 1 1 1 1 1 1 2 2 1 1 0 0 0 0 0 0 -0 -0 -0 -1 -1 -1 -1
-2 -2 -2 -2 -2 -2 -2 -2 -2 -2 -2 -2 -2 -2 -2 -2 -2 -2 -2 -2 -2 -2 -2 -2 -2 -2 -2 -2 -1 -1 -1 -1 -1 -1 -1 -1 -1 -1 -1 -2 -2 -2 -2 -2 -2 -2 -2 -1 -1 -1 -1 -1 -1 -1 -1 -0 -0 -0 0 0 0 0 1 1 1 1 1 1 1 1 1 1 1 0 -0 -0 -0 -0 -0 -0 -0 -1 -1 -1 -1 -1
-2 -2 -2 -2 -2 -2 -2 -2 -2 -2 -2 -2 -2 -2 -2 -2 -2 -2 -2 -2 -2 -2 -2 -2 -2 -2 -2 -1 -1 -1 -1 -1 -1 -1 -1 -1 -1 -1 -1 -1 -2 -2 -2 -2 -2 -2 -2 -1 -1 -1 -1 -1 -1 -1 -0 -0 -0 -0 -0 0 0 0 1 1 1 1 1 1 1 1 1 1 1 0 -0 -1 -1 -1 -1 -1 -1 -1 -1 -1 -1 -1
-2 -2 -2 -2 -2 -2 -2 -2 -2 -2 -2 -2 -2 -2 -2 -2 -2 -2 -2 -2 -2 -2 -2 -2 -2 -2 -2 -1 -1 -1 -1 -1 -1 -1 -1 -1 -1 -1 -1 -1 -1 -1 -1 -1 -2 -1 -1 -1 -1 -1 -1 -1 -1 -1 -0 -0 -0 -0 0 0 0 1 1 1 1 1 1 1 1 1 1 1 0 -0 -0 -0 -1 -1 -1 -1 -1 -1 -1 -1 -1 -2
-3 -2 -2 -2 -2 -2 -2 -2 -2 -2 -2 -2 -2 -2 -2 -2 -2 -2 -2 -2 -2 -2 -2 -2 -2 -2 -2 -1 -1 -1 -1 -1 -1 -1 -1 -1 -1 -1 -1 -1 -1 -1 -1 -1 -1 -1 -1 -1 -1 -1 -1 -1 -1 -1 -0 -0 0 0 0 0 1 1 1 1 1 1 1 1 1 1 1 0 -0 -0 -1 -1 -1 -1 -1 -1 -1 -1 -1 -1 -2 -2
-3 -2 -2 -2 -2 -2 -2 -2 -2 -2 -2 -2 -2 -2 -2 -2 -2 -2 -2 -2 -2 -2 -2 -2 -2 -2 -1 -1 -1 -1 -1 -1 -1 -1 -1 -1 -1 -1 -1 -1 -1 -1 -1 -1 -1 -1 -1 -1 -1 -1 -1 -1 -1 -1 -1 -0 0 0 1 1 1 1 1 1 1 1 1 1 1 1 0 -0 -1 -1 -1 -1 -1 -1 -1 -1 -1 -1 -1 -1 -2 -2
-3 -3 -3 -3 -3 -3 -3 -3 -2 -2 -2 -2 -2 -2 -2 -2 -2 -2 -2 -2 -2 -2 -2 -2 -2 -2 -1 -1 -1 -1 -1 -1 -1 -1 -1 -1 -1 -1 -1 -1 -1 -1 -1 -1 -1 -1 -1 -1 -1 -1 -1 -1 -1 -1 -1 -0 0 0 1 1 1 1 1 1 1 1 1 1 1 0 -0 -1 -1 -2 -2 -2 -2 -2 -2 -2 -2 -2 -1 -2 -2 -2
-3 -3 -3 -3 -3 -3 -3 -3 -3 -2 -2 -2 -2 -2 -2 -2 -2 -2 -2 -2 -2 -2 -2 -2 -2 -2 -2 -1 -1 -1 -1 -1 -1 -1 -1 -1 -1 -1 -1 -1 -1 -1 -1 -1 -1 -0 -0 0 0 0 1 0 0 -0 -0 -0 0 0 0 1 1 1 1 1 1 1 1 0 0 -0 -1 -1 -2 -2 -2 -3 -2 -2 -2 -2 -2 -2 -2 -2 -2 -2
Height
771 771 772 772 772 772 773 773 773 773 773 773 773 773 773 773 773 773 773 773 773 773 773 773 772 772 772 771 771 771 770 770 770 770 769 769 769 769 770 770 770 770 770 770 770 770 771 771 771 771 771 771 771 770 770 770 770 770 769 769 769 769 768 768 767 767 767 766 766 766 766 765 765 764 764 763 763 763 763 763 762 762 762 762 762 762
771 771 771 772 772 772 772 772 772 772 772 772 772 772 772 772 772 772 772 772 773 773 773 772 772 772 771 771 771 770 770 769 769 769 769 769 769 769 769 769 769 769 770 770 770 770 770 770 770 770 770 770 769 769 769 769 768 768 768 768 767 767 766 766 766 765 765 765 764 764 763 763 762 762 762 761 761 761 761 761 761 760 760 760 760 760
771 771 771 771 772 772 772 772 772 772 772 772 772 772 772 772 772 772 772 772 772 772 772 772 771 771 771 770 770 770 769 769 769 769 768 768 768 769 769 769 769 769 769 769 769 769 769 769 769 769 769 768 768 768 768 767 767 767 766 766 766 765 765 764 764 763 763 763 762 762 761 761 761 760 760 760 759 759 759 759 759 758 758 758 758 758
771 771 771 771 771 771 771 772 771 771 771 771 771 771 771 771 772 772 772 772 772 772 772 771 771 771 770 770 770 769 769 769 768 768 768 768 768 768 768 768 768 768 768 768 768 768 768 768 768 767 767 767 767 766 766 766 766 765 765 765 764 764 763 763 762 762 761 761 760 760 759 759 758 758 758 757 757 757 757 757 757 757 756 756 756 756
770 771 771 771 771 771 771 771 771 771 771 771 771 771 771 771 771 771 771 772 772 771 771 771 771 771 770 770 769 769 768 768 768 768 768 767 767 767 767 767 767 767 767 767 767 767 766 766 766 766 766 766 765 765 765 764 764 764 763 763 762 762 761 761 761 760 760 759 758 758 757 757 757 756 756 756 756 755 755 755 755 755 755 755 754 754
770 771 771 771 771 771 771 771 771 771 771 771 771 771 771 771 771 771 771 771 771 771 771 771 770 770 770 769 769 768 768 768 768 767 767 767 767 766 766 766 766 766 766 766 766 765 765 765 765 764 764 764 763 763 763 762 762 762 761 761 761 760 760 759 759 758 758 757 757 756 756 755 755 755 754 754 754 753 753 753 753 753 752 752 752 752
770 770 770 771 771 771 771 771 771 771 771 771 771 771 771 770 770 770 770 770 770 770 770 770 770 770 770 769 769 768 768 768 767 767 767 766 766 766 766 765 765 765 765 765 764 764 764 763 763 763 762 762 761 761 761 761 760 760 759 759 759 758 758 757 757 756 756 755 755 754 754 753 753 753 752 752 752 751 751 751 751 751 751 750 750 750
770 770 770 771 771 771 771 771 771 771 771 771 771 771 771 771 770 770 770 770 770 770 769 769 769 769 769 769 769 768 768 767 767 767 766 766 766 765 765 765 764 764 764 763 763 763 762 762 761 761 761 760 760 759 759 759 758 758 757 757 756 756 756 755 755 754 754 753 753 752 752 751 751 751 750 750 750 749 749 749 749 748 748 748 748 748
770 770 770 771 771 771 771 771 771 771 771 771 771 771 771 771 770 770 770 770 769 769 769 769 769 769 769 768 768 768 767 767 766 766 766 766 765 765 764 764 763 763 763 762 762 761 761 761 760 760 759 759 758 758 757 757 756 756 755 755 754 754 753 753 752 752 751 751 751 750 750 749 749 749 748 748 747 747 747 746 746 746 746 746 746 745
769 770 770 771 771 771 771 771 771 771 771 770 770 770 770 770 770 770 770 770 769 769 769 769 768 768 768 767 767 767 766 766 765 765 765 765 764 764 763 763 763 762 762 761 761 760 760 759 759 758 757 757 756 756 755 755 754 754 753 753 752 752 751 751 750 750 749 749 749 748 748 747 747 746 746 746 745 745 745 744 744 744 743 743 743 743
769 770 770 770 770 770 771 771 771 770 770 769 769 769 769 770 770 770 770 770 769 769 769 768 768 768 767 767 766 766 766 765 764 764 764 763 763 763 763 762 762 761 761 760 760 759 758 758 757 756 756 755 755 754 753 753 752 752 751 751 750 750 749 749 748 748 747 747 746 746 746 745 745 744 744 744 743 743 742 742 741 741 741 741 740 740
769 769 770 770 770 770 770 770 770 769 769 769 769 769 769 769 769 770 770 769 769 769 768 768 768 767 767 766 766 765 765 764 764 763 763 763 762 762 762 761 761 760 760 759 758 757 757 756 755 755 754 753 753 752 751 751 750 750 749 749 748 748 747 747 746 746 745 745 745 744 744 743 743 742 742 741 741 741 740 740 739 739 738 738 738 737
769 769 769 769 769 769 769 769 769 769 769 769 769 769 769 769 769 769 769 769 769 768 768 767 767 766 766 765 765 764 764 763 763 763 762 762 762 761 761 761 760 759 759 758 757 756 755 755 754 753 752 752 751 750 750 749 749 748 748 747 747 746 746 745 745 744 743 743 742 742 741 741 741 740 740 739 739 738 738 737 737 736 736 736 735 735
769 769 769 769 769 769 769 769 769 769 769 769 769 769 769 769 769 769 769 768 768 768 767 766 766 765 765 764 763 763 763 763 762 762 761 761 761 761 760 760 759 758 757 756 756 755 754 753 752 751 751 750 750 749 748 748 747 747 746 746 745 745 744 744 743 742 742 741 741 740 740 739 739 738 738 737 737 736 736 735 735 734 734 733 733 733
768 769 769 768 768 769 769 769 769 769 769 769 769 769 769 769 769 769 768 768 767 767 766 766 765 764 764 763 763 762 762 762 761 761 761 760 760 760 759 758 757 756 756 755 754 753 753 752 751 750 750 749 748 748 747 746 746 745 744 744 743 743 742 742 741 741 740 739 739 738 738 737 737 736 736 735 735 734 734 733 733 732 732 731 731 731
768 768 768 768 768 768 768 768 768 768 768 768 768 769 769 768 768 768 768 767 767 766 766 765 764 763 763 762 762 761 761 761 761 760 760 759 758 758 758 757 756 755 755 754 753 752 751 751 750 749 748 747 747 746 746 745 744 743 742 742 741 741 740 740 739 739 738 737 737 736 736 735 735 734 734 733 733 732 731 731 731 730 729 729 729 728
768 768 768 768 767 767 768 768 768 768 768 768 768 768 768 768 768 767 767 767 766 766 765 765 764 763 762 761 761 761 760 760 760 759 759 757 757 756 756 756 754 753 753 752 751 750 749 749 748 747 746 746 746 745 744 743 742 741 741 740 739 738 738 737 737 736 736 735 735 734 734 733 733 732 731 731 731 730 729 729 728 728 727 727 726 726
767 767 767 767 767 767 767 767 767 767 767 767 767 767 767 767 767 767 766 766 766 765 765 764 763 763 762 761 761 760 759 759 759 758 757 756 755 755 755 754 752 751 751 750 749 748 747 747 746 746 745 744 744 743 743 742 741 740 739 738 737 736 736 735 735 734 734 733 733 732 732 731 731 730 730 729 728 728 727 726 726 725 725 724 724 723
766 766 766 766 766 766 766 766 766 767 767 767 766 766 766 766 766 766 766 765 765 764 764 763 763 762 761 760 760 759 759 759 758 757 756 755 753 753 753 752 751 749 749 748 747 746 746 745 744 743 743 742 741 741 741 740 739 738 737 736 735 735 734 733 733 732 731 731 731 730 730 729 728 728 727 726 726 725 725 724 724 723 722 722 721 721
765 766 766 766 766 766 766 766 766 766 766 766 766 766 766 765 765 765 765 764 764 763 763 762 762 761 760 759 759 758 758 758 757 756 754 753 752 751 751 751 749 748 747 746 746 745 744 743 742 742 741 740 740 739 739 738 737 736 735 734 733 733 732 731 731 730 730 729 728 728 727 727 726 726 725 724 724 723 722 722 721 721 720 720 719 719
765 765 765 765 765 765 765 765 765 765 765 765 765 765 765 765 764 764 764 763 763 762 762 761 761 760 759 758 758 757 757 757 756 755 753 751 750 750 750 749 748 746 745 745 744 743 743 742 741 741 740 739 738 738 737 736 736 735 733 732 731 731 730 729 729 728 727 727 726 726 725 725 724 724 723 722 722 721 721 720 719 719 718 717 717 716
764 764 764 764 764 765 764 764 765 765 765 765 765 764 764 764 764 763 763 762 762 761 761 760 760 759 758 758 757 756 756 756 756 754 752 750 748 748 748 747 746 745 744 743 742 742 741 740 739 739 738 737 737 736 736 735 734 733 731 730 729 728 728 727 726 726 726 725 725 724 723 723 722 721 721 720 720 719 718 718 717 717 716 716 715 714
763 763 763 763 764 764 764 764 764 764 764 764 764 764 763 763 763 762 762 762 761 761 760 759 758 758 757 757 756 755 755 755 754 753 752 750 747 746 746 746 745 743 742 741 741 740 739 738 738 737 736 736 735 734 734 733 732 731 730 728 727 726 726 725 725 724 724 723 722 722 721 721 720 720 719 718 718 717 716 716 715 715 714 713 713 712
762 763 763 763 763 763 763 763 763 763 763 763 763 763 762 762 762 762 761 761 761 760 759 758 757 756 756 755 754 754 753 753 753 752 751 749 746 745 745 745 744 742 740 740 740 739 737 736 736 735 734 733 733 732 731 731 730 729 728 727 726 725 724 723 723 722 721 721 721 720 719 719 718 717 717 716 716 715 715 714 713 713 712 711 711 710
762 762 762 762 762 762 762 762 762 762 762 762 762 762 761 761 761 761 760 760 759 759 758 757 756 754 753 753 752 752 751 752 751 751 750 748 746 744 744 744 743 741 739 738 738 738 736 735 734 733 733 731 731 730 730 729 728 728 727 726 724 723 722 721 721 720 720 719 718 718 717 717 716 716 715 714 714 713 712 712 711 711 710 709 708 707
761 761 761 761 761 761 761 761 761 761 761 761 761 761 761 761 760 760 759 758 758 757 756 755 754 752 752 751 751 751 750 751 750 750 749 748 745 743 743 743 742 740 738 737 737 736 735 733 732 731 731 730 729 728 728 727 727 726 725 724 723 722 721 719 719 718 717 717 716 716 715 715 714 713 713 712 711 711 711 710 709 708 708 707 706 705
760 760 760 760 760 760 760 760 760 760 760 761 761 761 760 760 759 759 758 757 757 756 755 754 752 751 751 751 750 749 749 749 749 749 748 747 745 742 742 742 741 739 737 736 735 735 734 732 731 730 729 728 727 726 726 726 725 724 724 723 721 720 719 718 717 716 715 715 714 713 713 712 712 711 710 710 709 709 708 708 707 706 706 705 704 702
759 759 759 759 759 759 759 759 759 759 759 759 759 759 759 759 758 757 756 756 756 755 754 753 752 751 750 749 749 748 749 748 748 747 747 746 744 742 741 741 740 739 737 735 733 733 732 731 729 728 727 726 726 725 724 724 723 723 722 721 720 719 718 716 715 714 713 712 711 711 710 710 709 708 708 707 707 706 706 706 705 704 703 703 702 701
758 758 758 758 758 758 758 758 758 758 758 758 758 758 758 758 757 756 756 756 755 755 753 753 752 751 750 749 748 747 747 747 747 746 746 745 743 741 741 740 739 738 737 735 732 730 730 729 728 727 726 725 725 724 723 722 722 721 720 719 718 717 716 715 714 713 711 710 709 708 707 707 706 706 706 705 705 704 704 703 703 702 702 701 700 699
757 757 757 757 757 757 757 757 757 756 756 756 756 756 756 756 756 756 755 755 755 754 753 752 751 751 750 749 747 746 745 745 745 745 745 744 742 741 740 740 738 738 738 736 732 728 726 726 726 726 725 724 724 723 722 721 721 720 719 718 716 716 714 713 712 711 710 709 707 706 705 704 704 704 703 703 702 702 701 701 701 701 700 699 698 697
757 757 757 756 756 756 756 756 756 756 756 755 755 755 755 755 755 754 754 754 754 753 752 751 751 750 749 749 747 745 743 743 744 745 745 743 742 740 740 739 738 737 738 737 734 730 725 723 724 725 724 724 723 722 722 721 720 718 717 716 715 714 713 712 711 709 708 707 706 705 703 703 702 701 701 701 700 700 699 699 699 699 698 697 696 695
756 756 756 756 756 756 755 755 755 755 754 754 754 754 754 754 753 753 753 753 752 752 751 750 750 749 748 748 746 745 743 743 743 744 744 743 741 740 740 739 737 736 736 737 736 733 728 724 722 723 723 723 722 721 720 720 718 717 716 715 713 712 711 711 709 708 706 706 704 703 702 701 701 700 699 699 698 698 697 697 697 697 696 696 694 693
756 756 755 755 755 755 754 754 754 753 753 753 753 752 752 752 752 751 751 751 751 751 750 749 748 748 747 746 745 744 743 743 743 743 744 743 741 739 739 738 737 736 735 735 735 734 731 727 724 722 722 721 721 720 718 718 717 716 715 714 712 710 709 709 708 706 705 704 703 702 701 700 699 698 697 696 696 695 695 695 695 695 695 694 693 691
755 754 754 754 754 753 753 753 752 752 752 752 751 751 751 751 750 750 750 750 749 749 749 748 747 746 746 745 743 742 741 742 742 743 743 742 741 739 738 737 736 735 735 734 733 732 730 727 725 723 721 719 718 718 717 716 715 714 714 713 711 709 708 707 706 705 703 702 701 700 699 698 697 696 695 694 694 693 692 692 692 692 692 692 691 690
753 753 753 753 752 752 752 751 751 751 751 750 750 750 750 749 749 749 748 748 748 747 747 747 746 746 745 744 743 741 740 741 741 742 742 741 740 739 737 736 736 736 735 733 732 731 729 726 725 724 721 718 716 716 716 715 714 712 711 711 710 708 706 706 705 704 702 701 700 698 697 696 695 694 693 692 691 691 690 689 689 689 689 689 689 688
752 752 752 751 751 751 750 750 750 750 749 749 749 749 748 748 748 747 747 747 746 746 746 745 745 744 744 743 742 741 739 739 740 741 741 741 740 739 737 736 735 736 735 732 731 730 729 726 724 723 722 719 716 713 713 713 713 711 710 709 708 707 706 705 704 702 701 699 698 697 696 695 694 692 691 690 689 688 687 687 686 686 686 686 686 686
751 751 751 750 750 750 749 749 749 749 748 748 748 747 747 747 746 746 746 746 745 745 744 744 743 743 742 741 741 740 739 739 739 739 739 739 739 738 737 735 734 735 734 732 730 729 728 726 723 721 720 719 716 713 711 711 710 710 708 707 706 706 704 703 703 702 700 698 696 695 694 693 691 690 689 688 687 686 685 684 684 683 683 682 682 682
750 750 750 749 749 749 749 748 748 748 747 747 747 746 746 746 746 745 745 744 744 743 743 742 741 741 740 740 739 739 738 737 737 737 737 738 738 737 736 734 733 733 733 732 730 728 727 726 723 720 718 716 715 713 711 710 709 707 706 706 705 704 703 702 701 700 699 696 695 693 691 691 690 688 687 686 686 685 683 682 681 681 681 680 679 678
749 749 749 749 749 748 748 748 747 747 747 746 746 746 745 745 744 744 743 743 742 742 741 741 740 739 738 738 737 737 736 736 735 735 735 736 736 736 735 733 732 731 731 731 729 728 726 725 722 720 717 715 712 711 710 710 708 706 705 704 703 702 702 701 700 698 696 695 693 691 689 688 687 686 685 684 684 683 681 680 680 679 679 678 677 676
748 748 748 748 748 747 747 747 746 746 746 745 745 745 744 744 743 743 742 742 741 741 740 739 738 738 737 736 736 735 734 734 733 733 733 733 733 733 733 732 731 730 729 728 727 726 725 723 721 719 717 716 713 710 709 708 707 706 705 703 700 699 700 699 698 696 695 693 691 690 687 686 685 684 684 683 682 681 680 679 678 677 677 677 676 674
748 747 747 747 746 746 746 746 746 745 745 744 744 744 743 743 742 741 741 741 740 739 739 738 737 736 735 735 734 733 733 732 731 731 731 731 731 731 731 730 729 728 727 726 725 724 723 721 719 717 716 715 713 711 708 706 706 706 705 702 699 697 697 697 696 694 692 691 690 688 686 685 683 682 682 681 680 679 678 678 676 676 675 675 674 673
747 746 746 746 746 745 745 745 744 744 744 743 743 743 742 742 741 741 740 739 739 738 737 737 736 735 733 733 732 731 731 730 730 730 729 729 728 728 728 728 727 726 726 724 722 721 721 720 718 716 714 713 712 710 706 705 704 704 703 701 699 696 695 694 694 693 691 689 687 686 686 684 682 681 680 679 678 677 677 676 675 674 673 673 672 672
746 745 745 745 745 744 744 744 743 743 743 742 742 741 741 741 740 740 739 738 737 737 736 736 735 734 732 731 730 729 729 728 728 728 727 726 726 726 726 725 725 724 724 722 721 719 718 718 716 714 713 712 711 709 706 703 702 701 700 699 698 696 693 691 691 691 689 687 685 685 684 682 681 679 678 677 676 676 675 674 674 673 672 671 670 670
744 744 744 744 743 743 743 742 742 742 741 741 741 740 740 739 739 738 738 737 736 736 735 734 733 732 731 730 728 727 726 726 726 726 725 724 724 723 723 723 722 722 722 721 719 717 716 715 714 712 711 710 709 706 704 702 700 699 697 697 696 695 692 690 688 687 686 684 683 682 682 681 679 677 676 676 675 674 674 673 672 671 670 669 669 668
743 743 743 743 742 742 742 741 741 740 740 740 739 739 738 738 737 737 736 736 735 734 733 733 732 731 729 728 727 726 725 724 724 723 723 722 722 721 721 720 720 720 719 719 718 716 715 713 711 710 709 708 706 705 702 700 698 696 695 695 694 693 690 688 687 686 684 682 681 681 680 679 678 676 675 674 673 672 672 671 671 669 668 668 667 666
742 742 742 741 741 741 740 740 740 739 739 738 737 737 736 736 736 735 735 734 733 732 732 731 731 730 728 726 726 725 723 722 721 721 721 720 720 720 719 719 718 717 717 716 715 714 713 711 709 708 707 706 704 702 700 699 696 695 693 692 691 690 688 686 685 684 683 681 680 679 678 678 676 675 674 672 671 671 670 670 669 668 667 666 665 664
741 741 741 740 740 739 739 739 738 738 737 736 736 736 735 735 734 734 733 733 732 731 730 730 729 728 726 725 724 723 722 721 720 719 719 718 718 718 718 717 716 715 714 713 712 711 710 708 707 706 705 704 701 699 697 696 695 693 691 690 689 687 686 684 682 682 681 679 678 677 676 676 675 674 672 671 670 669 668 668 667 666 665 664 663 663
740 740 739 739 738 738 737 737 737 736 736 735 734 734 733 733 733 732 731 731 730 730 729 728 727 726 725 724 723 722 721 720 718 718 717 716 716 716 715 715 714 712 711 710 709 707 706 705 704 704 703 702 700 697 695 694 693 691 689 688 687 685 683 681 680 679 679 677 676 676 675 675 674 673 672 671 669 668 667 666 666 665 664 663 662 661
739 738 738 738 737 737 736 736 736 735 734 734 733 732 732 731 731 731 730 729 729 728 727 726 725 724 723 722 721 720 719 718 717 716 716 715 714 714 713 712 711 710 709 707 706 705 703 701 700 700 700 699 697 695 693 691 690 688 687 686 684 682 681 679 678 677 676 676 675 674 674 673 673 672 671 670 668 667 666 665 664 663 663 662 661 660
738 737 737 737 736 736 735 735 734 734 733 732 731 731 730 730 729 729 728 728 727 726 726 725 724 723 721 720 719 718 718 717 716 715 714 713 713 712 711 710 709 708 707 705 704 702 701 699 697 696 695 695 694 692 690 688 687 686 684 682 681 680 679 677 676 675 675 674 673 673 672 671 671 671 670 669 667 666 665 663 662 661 661 661 660 659
737 736 736 736 735 734 734 733 733 732 731 731 730 730 729 728 728 727 726 726 725 724 724 723 722 721 720 718 717 717 716 715 714 713 712 711 711 710 709 708 708 707 705 703 702 700 698 696 694 691 690 690 689 688 687 686 684 683 681 680 679 678 677 676 674 674 673 673 672 671 671 670 670 669 669 668 667 665 663 662 661 660 659 659 658 657
Wind_Speed
7 6 5 5 6 5 4 3 3 3 4 5 6 6 6 6 6 5 5 4 4 3 3 2 2 2 3 3 4 5 5 6 6 7 7 8 9 9 10 10 11 11 11 12 12 13 13 14 15 15 15 16 16 17 17 18 18 18 19 19 20 20 20 20 21 21 21 21 21 22 22 22 23 23 24 24 24 24 24 24 24 24 25 24 24 24
5 4 4 5 5 4 2 2 3 4 4 5 6 6 7 7 7 7 6 6 5 5 4 4 3 3 3 3 4 4 5 6 6 7 8 8 9 9 10 10 11 11 12 12 13 13 14 14 15 15 16 16 16 17 17 18 18 18 19 19 20 20 21 21 21 22 22 22 23 23 24 24 25 25 25 25 25 24 24 24 24 24 23 23 23 23
4 3 3 3 4 4 2 2 3 4 5 6 6 6 7 7 7 7 7 7 7 6 6 6 5 5 4 4 4 5 5 5 6 7 7 8 9 9 10 10 11 11 12 12 13 13 14 14 15 15 16 16 16 16 17 17 17 18 18 18 19 19 19 20 21 21 22 22 23 24 25 25 25 26 25 25 24 24 23 23 23 23 23 23 23 23
3 3 2 2 3 3 3 3 4 5 6 6 6 6 7 7 7 7 7 7 7 7 7 7 7 7 6 6 6 6 6 6 6 7 7 8 8 9 10 10 11 11 12 12 13 13 14 14 14 14 15 15 15 15 15 16 16 16 16 17 17 17 18 18 19 20 20 21 22 22 23 23 24 24 24 23 23 23 23 22 22 22 23 23 23 23
3 2 2 2 3 3 3 4 5 5 6 6 7 7 7 7 7 7 7 7 7 7 7 8 8 8 8 8 8 8 7 7 8 8 9 9 10 10 10 11 11 12 12 12 12 13 13 13 13 13 13 14 14 14 14 14 15 15 16 16 17 17 18 18 19 19 20 20 21 21 21 21 22 22 22 22 22 22 22 22 22 22 23 23 24 24
3 2 2 2 2 2 3 4 5 6 6 7 8 8 8 8 8 8 8 8 8 8 8 9 9 9 10 10 10 9 9 9 10 10 10 11 11 11 12 12 12 12 12 12 12 12 12 12 12 13 13 14 14 14 15 15 16 16 17 18 18 19 20 20 20 21 21 21 21 21 21 21 21 21 21 22 22 23 23 23 23 23 23 24 24 24
3 2 2 2 2 2 3 4 5 6 7 7 8 8 9 9 9 9 9 10 10 10 10 10 10 11 11 11 11 12 12 12 12 12 13 13 13 13 13 12 12 12 12 12 12 12 12 12 13 14 15 15 16 17 17 18 18 19 20 20 21 22 22 22 22 22 22 21 21 21 21 21 21 22 22 23 24 24 25 25 25 24 24 24 25 25
3 2 2 1 1 2 2 3 4 5 6 6 6 6 6 6 7 8 9 10 11 11 11 12 12 11 10 11 12 13 14 14 14 14 14 13 13 13 13 13 12 12 12 12 12 12 13 14 15 16 16 17 18 19 20 20 21 21 22 22 23 23 23 23 23 22 22 22 21 21 21 21 22 22 23 24 24 25 26 26 26 26 25 26 26 26
3 3 2 2 1 0 0 0 2 4 5 5 4 4 4 4 5 5 6 8 9 10 11 11 11 10 10 11 12 13 14 15 15 14 12 12 11 11 12 12 12 12 12 13 13 14 15 16 17 18 19 19 20 21 22 22 23 23 23 23 23 23 23 23 23 23 22 22 22 21 21 21 22 22 23 23 24 24 25 25 26 26 26 27 27 28
3 3 2 2 1 1 0 1 1 3 5 6 5 4 3 3 4 5 5 5 6 8 9 9 9 9 10 11 12 12 13 14 14 13 11 10 10 10 11 11 12 13 14 15 16 17 18 18 19 20 20 21 22 22 23 23 23 23 23 23 23 23 23 23 23 23 23 22 22 22 22 22 22 22 23 23 24 24 25 25 26 26 27 27 27 28
2 2 2 2 1 0 0 1 1 3 5 5 5 4 2 2 3 5 6 6 6 6 7 7 7 8 9 10 11 11 11 11 11 11 10 10 10 10 11 13 14 15 16 18 19 20 20 21 21 21 21 21 21 21 22 22 22 23 23 23 23 23 23 24 24 24 23 23 23 23 23 23 23 23 23 24 24 25 25 26 26 27 27 27 28 28
2 1 1 1 1 1 1 1 1 3 4 3 3 2 1 2 3 5 5 7 7 7 7 7 7 8 9 10 10 10 9 9 8 9 9 9 10 11 12 13 14 16 17 18 19 20 21 21 21 21 20 20 20 20 20 20 21 21 22 22 23 23 24 24 24 25 25 24 24 24 24 23 23 24 24 24 25 25 25 26 26 26 27 27 27 28
1 1 1 1 1 1 1 1 1 1 1 1 2 2 2 3 4 5 5 6 7 8 8 8 9 9 9 10 10 9 8 7 7 7 8 8 8 9 10 11 12 13 14 15 17 17 19 20 20 20 19 19 18 18 19 19 20 21 21 22 23 23 24 25 25 25 25 25 25 25 24 24 24 24 25 25 25 25 26 26 26 26 27 27 27 27
1 1 1 1 1 1 1 1 1 1 1 2 2 2 3 4 5 5 5 6 7 7 8 8 9 10 9 9 8 7 6 6 7 7 8 8 8 9 10 12 12 13 13 14 15 15 16 18 19 20 19 18 18 18 18 19 20 21 22 23 23 24 25 25 25 26 26 26 26 25 25 25 25 25 25 26 26 26 26 26 26 26 26 27 27 27
1 1 1 1 1 1 1 1 1 2 2 2 2 2 3 4 5 5 5 6 7 7 8 9 10 10 9 7 6 6 7 7 7 7 9 10 10 10 11 13 13 13 13 14 15 15 15 16 17 18 18 19 19 19 19 20 21 22 22 23 24 25 26 26 26 26 26 26 26 26 25 25 25 26 26 26 26 27 27 27 27 27 26 26 27 27
1 1 1 2 2 2 1 1 1 2 3 3 3 3 3 4 4 5 5 6 7 7 8 9 9 9 8 7 7 8 8 7 6 8 10 12 12 12 12 12 13 13 13 14 15 15 15 15 15 16 17 18 19 20 20 21 22 22 23 24 26 26 27 27 27 27 26 26 26 26 25 26 26 26 27 27 27 27 27 27 27 27 27 27 27 27
1 1 2 2 2 2 2 2 2 2 3 3 3 3 3 4 4 5 6 6 7 7 7 7 7 6 6 7 7 7 8 7 7 9 12 14 14 13 12 12 13 14 14 15 15 15 15 15 15 15 16 17 18 20 21 22 23 24 24 26 27 28 28 28 28 27 27 26 26 26 26 26 26 27 27 28 28 28 28 28 28 27 27 27 27 27
1 2 2 2 3 3 2 2 2 3 3 3 3 3 4 4 4 5 6 6 7 7 7 7 7 6 6 7 7 7 9 10 11 12 14 15 15 13 12 13 15 15 14 15 15 15 15 15 15 15 16 17 19 20 22 23 24 25 26 27 28 28 29 29 28 28 28 27 27 26 26 26 27 27 28 29 29 29 29 28 28 27 27 27 27 27
2 2 2 3 3 3 3 3 3 3 3 4 4 4 5 5 5 5 6 6 7 7 7 8 8 8 8 10 10 10 10 11 12 13 14 14 15 14 12 13 14 14 14 14 14 14 14 15 15 16 17 18 20 21 22 23 25 26 27 28 29 29 29 29 29 28 28 28 27 27 27 27 27 28 28 29 29 29 28 28 28 27 27 27 27 27
3 3 3 3 3 4 4 3 3 3 4 4 5 5 6 6 6 6 7 7 7 8 8 9 9 10 10 11 11 11 11 12 13 14 14 15 15 14 12 12 13 14 14 14 13 13 14 15 15 16 17 18 19 19 20 22 24 27 28 29 29 29 29 29 29 28 28 28 27 27 27 28 28 28 28 29 28 28 28 27 27 26 26 27 27 27
3 3 3 3 3 4 4 4 4 4 4 5 5 6 6 7 7 7 7 8 8 9 10 10 11 11 11 12 13 13 12 13 14 15 15 15 15 14 13 12 13 15 15 15 15 15 15 16 16 16 16 16 17 18 20 22 25 27 29 29 29 29 29 28 28 28 27 27 27 27 27 27 28 28 28 28 28 27 27 26 26 26 26 26 26 27
4 4 4 4 4 4 5 5 5 5 5 6 6 6 6 6 7 8 8 9 9 10 11 11 12 13 14 15 15 15 14 14 14 15 15 15 15 15 13 13 14 16 16 16 16 16 16 17 17 17 17 17 18 19 21 23 25 27 28 29 29 28 28 28 27 26 26 26 26 26 26 27 27 27 28 28 27 26 25 25 24 24 25 25 26 26
5 5 5 5 5 5 6 6 6 6 6 6 6 6 6 7 8 9 10 10 11 12 13 14 14 15 15 16 16 15 14 13 13 14 13 13 14 15 13 13 15 16 17 17 17 17 17 17 17 17 17 18 19 19 21 22 24 26 27 28 28 28 27 26 26 25 25 25 25 25 26 26 26 27 27 27 25 24 23 23 23 24 25 26 26 27
5 6 6 6 6 6 6 6 6 6 6 7 7 8 9 10 10 11 11 12 13 13 14 15 15 16 16 15 15 14 13 12 11 12 12 13 14 15 15 15 16 17 18 17 16 17 18 18 18 18 18 19 19 19 20 21 23 24 26 26 27 26 26 25 25 24 24 25 25 25 25 26 26 27 27 26 25 23 23 23 24 26 27 28 28 29
6 6 6 6 6 7 7 8 8 8 8 8 9 10 11 11 12 12 12 13 13 14 14 15 15 14 14 13 13 13 12 10 10 10 11 13 15 16 16 15 16 18 19 18 17 17 18 19 18 18 18 18 19 19 20 20 21 23 24 25 25 25 25 25 24 24 25 25 25 26 26 26 27 28 28 27 26 26 26 27 28 29 29 30 30 31
7 8 8 8 9 9 10 10 10 10 10 11 11 11 11 12 12 13 13 13 13 13 13 13 13 13 13 13 13 13 12 10 9 9 11 12 15 17 16 15 16 17 19 18 17 17 18 19 19 19 19 19 20 20 20 20 20 21 23 24 24 25 25 25 25 25 26 26 27 28 29 30 31 30 29 29 28 28 29 29 30 31 32 32 32 31
10 10 11 11 11 11 12 12 12 12 12 12 12 11 12 12 12 13 13 12 12 12 13 12 12 12 13 13 13 13 12 11 10 10 11 13 15 16 15 15 15 17 18 18 18 18 19 21 21 20 20 20 20 19 19 19 19 20 22 23 24 25 26 27 27 28 29 30 31 33 34 34 34 33 32 30 29 29 29 30 30 31 32 32 30 29
12 12 12 12 12 12 12 12 13 12 12 12 11 11 11 11 12 12 12 12 12 12 13 12 11 11 12 12 13 14 14 13 13 13 13 14 14 14 14 14 15 17 18 19 19 20 20 20 21 20 20 19 18 18 18 17 18 19 20 21 23 24 26 28 30 32 33 35 36 37 37 35 33 32 31 31 31 31 31 31 31 31 31 29 26 25
11 12 12 12 12 12 12 12 12 12 12 12 12 11 11 11 12 13 13 12 12 13 13 13 13 12 13 14 16 16 15 14 13 12 12 13 13 13 14 14 15 16 17 19 20 21 19 19 18 17 17 17 16 16 16 17 18 19 20 21 22 24 26 28 30 33 35 36 37 36 34 32 30 29 29 29 30 31 32 32 32 30 27 25 24 23
9 9 9 9 10 10 10 10 10 10 11 12 12 12 12 11 12 13 13 13 13 13 14 14 14 14 14 15 14 13 12 12 10 8 8 10 11 12 13 14 15 16 15 16 15 14 15 17 16 15 15 16 16 16 17 18 19 20 21 22 22 23 24 25 28 31 33 34 34 32 31 29 28 28 28 29 29 30 31 31 30 28 25 23 23 23
8 8 8 8 8 9 9 9 10 10 11 11 11 11 11 11 12 13 13 13 13 14 15 15 15 15 15 13 9 6 6 9 8 7 8 10 12 13 14 15 16 16 15 13 8 5 9 13 15 15 15 16 17 18 19 20 21 21 21 21 21 22 22 24 26 28 30 30 30 29 29 28 28 28 28 28 29 29 29 29 28 26 24 23 23 23
9 9 9 9 9 9 9 10 10 10 10 11 11 11 11 11 12 12 12 13 14 14 15 16 16 16 15 14 10 8 9 11 11 10 11 13 14 15 15 16 17 18 16 14 12 10 7 9 14 19 19 20 21 22 22 21 21 20 20 21 21 21 22 23 24 25 25 25 25 26 26 26 26 26 27 27 27 28 28 28 27 25 24 23 23 23
9 9 10 10 10 10 10 10 10 10 11 10 10 10 10 11 11 12 12 13 13 13 14 15 15 16 16 16 16 15 16 15 14 13 13 14 15 15 15 16 18 18 17 16 17 17 15 15 19 23 23 23 23 22 21 20 20 20 20 21 22 22 22 22 22 23 23 23 23 23 24 24 25 26 26 27 27 27 27 27 26 25 23 23 23 23
10 10 10 11 11 11 11 10 10 10 11 10 10 10 10 10 10 11 11 11 12 12 13 14 14 15 15 15 16 17 17 16 14 13 13 14 15 15 16 17 18 18 18 17 17 18 19 21 22 22 22 23 22 21 20 20 21 21 21 21 22 22 22 22 22 22 23 23 23 23 23 23 23 24 25 25 26 27 27 27 26 25 23 23 23 23
10 10 10 10 10 10 10 10 10 10 10 10 10 10 10 10 10 10 10 11 11 11 12 13 14 14 15 15 16 16 17 16 14 13 13 14 15 17 18 18 18 18 18 19 17 16 18 20 21 21 21 22 23 23 22 21 21 21 21 20 21 21 22 22 22 22 23 23 23 23 23 22 23 23 23 24 25 27 28 28 27 26 25 25 24 24
10 10 10 10 10 10 10 10 10 10 10 10 10 10 9 10 10 10 10 11 11 12 13 13 14 15 16 16 17 18 19 18 17 16 16 16 16 17 18 19 19 18 19 19 18 17 17 20 21 22 21 21 22 23 22 21 20 21 21 21 21 21 22 22 23 23 24 24 24 24 23 24 24 24 24 24 26 28 29 29 29 28 27 26 26 25
11 11 10 10 10 9 9 9 9 9 9 9 9 9 9 10 10 10 11 12 12 13 14 15 15 16 17 18 19 20 20 20 19 19 18 18 18 19 20 20 20 19 19 20 20 19 18 19 20 21 21 20 19 20 22 22 22 22 23 23 23 23 24 24 24 24 25 26 26 26 26 26 26 26 26 25 26 26 27 27 27 26 26 26 26 25
11 10 10 9 9 9 9 9 9 9 9 9 9 10 10 10 11 12 12 13 14 14 15 15 16 17 18 18 20 21 22 22 22 22 22 21 20 21 21 22 22 21 20 20 21 21 19 18 15 14 16 19 21 23 24 24 24 24 25 24 24 24 25 25 25 26 26 27 27 27 27 27 26 26 25 25 24 23 23 23 23 23 23 24 24 24
10 10 9 9 9 9 9 9 9 10 10 10 10 10 11 12 12 13 13 14 14 15 15 16 16 17 18 20 21 22 22 23 24 24 24 24 23 22 22 22 22 22 21 20 21 21 20 19 16 15 16 19 22 24 25 25 25 26 26 27 26 26 25 25 26 27 27 27 27 28 28 27 25 24 23 23 22 21 21 22 21 21 21 20 21 22
10 10 10 10 10 10 10 10 10 10 10 11 11 12 12 13 13 13 13 14 14 15 15 16 17 17 18 19 20 20 21 22 23 23 23 24 24 23 22 22 22 22 21 20 21 21 21 21 21 21 22 21 23 24 26 25 26 26 27 26 26 26 26 26 26 26 26 27 27 27 27 27 25 23 22 22 22 22 21 21 22 21 21 19 19 20
10 10 10 10 10 10 10 10 11 11 11 12 12 12 13 13 13 13 13 13 14 14 15 15 16 17 18 19 19 20 20 22 22 22 22 23 24 25 24 24 23 22 21 21 21 22 21 22 23 24 22 23 24 26 28 28 28 27 27 25 25 27 28 27 27 27 27 27 26 26 26 25 23 22 22 22 22 21 21 21 21 22 22 20 19 19
11 11 11 11 11 11 11 11 12 12 12 13 13 13 13 13 13 13 14 14 14 15 15 15 16 17 18 18 18 19 20 20 21 22 23 24 26 27 27 26 24 23 22 22 23 23 23 23 24 24 24 23 23 25 27 29 29 28 27 26 27 27 27 26 26 25 25 25 24 24 24 24 23 23 22 22 21 21 23 23 22 22 21 20 20 20
11 11 12 12 12 12 12 13 13 13 13 13 13 13 13 14 14 14 14 15 15 16 16 16 16 17 18 19 19 20 21 22 22 22 23 24 25 25 26 25 23 22 22 23 23 23 23 23 24 25 24 24 23 24 26 27 28 27 26 26 25 23 20 23 25 25 25 24 24 24 25 25 24 23 22 21 21 21 22 22 22 22 21 21 20 19
12 12 13 13 13 13 13 14 14 13 13 13 13 13 14 14 14 14 14 15 15 16 16 16 17 17 18 19 20 20 21 21 20 20 21 22 23 23 23 23 22 22 22 23 22 22 23 23 23 24 24 24 23 23 25 25 26 26 26 25 24 23 22 24 26 26 24 24 24 24 25 25 24 23 22 21 21 22 22 21 21 20 21 20 20 19
13 14 14 14 14 14 14 14 14 13 13 14 14 15 15 14 14 14 15 16 16 16 16 16 16 16 17 17 18 19 20 19 19 19 19 19 19 20 21 21 22 21 21 22 22 22 22 22 23 23 23 22 22 23 24 25 26 26 26 26 26 27 28 27 26 24 24 25 24 23 24 25 24 22 20 20 20 20 21 21 21 20 20 19 19 18
14 14 13 13 13 14 14 14 14 14 14 15 15 15 15 15 15 15 15 16 17 17 17 17 16 16 16 17 18 19 19 19 19 18 18 17 17 17 18 19 20 20 21 21 22 23 23 23 23 23 22 22 22 24 26 26 25 25 25 25 26 26 27 26 25 24 25 25 25 25 26 25 23 20 18 18 19 20 20 20 20 20 19 19 18 18
13 13 13 13 13 14 14 14 14 14 14 15 15 16 16 15 14 14 15 16 16 17 17 16 16 17 17 18 18 18 19 19 19 19 18 18 17 17 17 18 20 21 22 23 24 24 26 27 27 26 25 23 23 23 25 26 25 25 25 25 25 24 25 25 25 25 24 24 24 24 24 22 20 18 18 18 19 19 19 19 18 18 18 18 18 18
13 13 13 13 13 13 14 14 14 14 14 15 15 16 16 15 15 15 16 16 16 16 16 16 16 17 17 18 18 18 19 19 19 19 19 19 19 18 18 18 19 20 22 24 25 27 29 30 31 30 28 26 24 24 25 25 26 26 25 25 24 24 24 25 25 24 24 23 23 23 21 18 17 16 17 18 18 19 19 19 18 17 17 17 17 17
13 12 13 13 13 14 14 14 14 15 15 15 16 16 16 16 16 16 16 16 16 16 16 16 16 16 16 17 18 19 19 19 19 19 19 19 19 19 19 19 19 20 21 22 23 25 26 28 29 29 29 28 27 26 25 26 26 27 27 26 25 24 24 24 24 24 23 22 21 20 19 17 16 16 16 16 17 18 19 19 19 18 17 16 16 16
12 12 13 13 14 14 15 15 15 15 15 16 16 16 16 16 16 16 15 16 16 17 16 17 16 16 16 17 18 19 19 19 19 19 20 19 19 19 19 19 19 19 19 20 20 20 21 22 24 25 27 29 29 28 27 27 27 27 26 25 24 23 23 24 24 23 21 20 18 17 17 16 16 16 15 15 16 17 18 18 19 18 17 16 16 15
12 13 13 14 14 15 15 15 15 15 15 15 15 15 15 15 15 15 15 15 16 16 16 17 17 17 17 18 19 19 19 19 19 20 20 20 19 19 19 19 18 18 18 17 17 17 17 16 17 19 23 25 27 29 29 27 26 26 25 24 23 23 22 23 22 21 19 17 16 15 15 16 16 16 15 15 15 15 16 17 18 18 17 16 15 15
Wind_Direction
131 128 126 124 123 122 122 104 80 54 39 35 36 40 43 45 44 43 41 40 39 35 28 11 349 322 303 291 283 278 275 272 270 268 267 267 266 266 267 267 267 268 269 269 270 271 273 275 277 279 281 283 285 286 287 288 288 288 288 287 287 286 285 284 282 281 280 279 279 278 277 277 276 276 276 276 277 277 278 277 277 276 275 274 274 274
132 128 124 119 118 117 103 57 45 45 47 41 38 38 39 37 34 31 29 28 26 24 20 13 2 347 330 311 300 291 284 280 276 272 270 269 268 267 267 267 267 268 268 269 270 272 274 276 278 280 281 283 284 285 285 286 286 286 286 287 287 286 286 285 284 282 280 279 278 276 276 275 275 276 277 278 278 279 279 278 278 277 277 276 275 274
134 126 119 106 107 110 99 34 25 37 44 43 39 36 34 34 31 26 25 23 20 16 11 7 1 354 345 334 322 313 302 295 288 283 279 277 275 273 272 271 271 271 271 271 273 274 275 276 278 280 281 282 283 283 283 283 284 284 284 285 286 287 288 288 288 288 286 285 284 283 282 281 281 281 281 281 281 280 279 278 278 277 276 276 275 275
135 125 114 83 72 73 71 44 33 35 40 39 36 32 29 28 24 21 19 17 14 10 5 0 357 353 348 341 335 328 321 315 309 303 298 294 290 287 285 282 280 279 278 278 278 278 279 280 281 282 282 283 283 284 283 283 283 283 284 285 286 288 290 292 293 293 293 293 292 291 290 288 287 286 285 283 282 280 279 277 277 276 276 276 275 275
124 111 103 75 53 43 38 38 37 35 33 30 28 25 22 20 16 12 8 6 4 0 356 353 351 349 345 341 337 332 328 324 321 316 312 307 303 299 296 293 290 288 287 286 286 286 286 286 287 288 288 289 289 289 288 287 286 286 286 287 289 291 292 294 295 296 296 295 295 294 293 292 290 289 287 286 284 282 281 279 278 277 276 276 276 275
117 107 98 81 67 51 35 36 34 30 24 20 17 15 12 8 4 1 359 356 352 349 345 344 343 343 340 337 333 329 326 323 320 316 312 308 304 301 299 296 295 294 294 293 293 293 293 294 295 295 296 297 296 296 294 293 291 291 290 291 292 293 294 295 295 295 295 294 293 292 291 290 289 288 288 287 286 285 284 282 280 279 278 277 276 276
119 116 103 81 66 53 42 35 31 26 21 13 7 4 1 358 355 351 349 347 344 341 337 335 335 336 336 333 329 326 324 321 318 315 311 307 304 301 299 298 297 297 297 297 298 298 299 299 300 300 300 300 299 299 298 297 296 295 294 294 295 295 296 297 297 296 295 294 292 291 289 288 288 287 287 286 286 286 285 284 282 280 278 277 277 276
129 131 117 100 71 47 37 27 24 22 21 14 2 354 351 350 347 344 340 339 338 336 334 332 331 331 332 330 327 324 322 320 318 315 312 308 305 301 300 299 299 299 300 301 301 301 301 300 300 299 299 299 298 298 298 297 297 296 296 296 297 297 298 299 299 299 299 297 295 293 292 291 290 289 289 288 288 286 285 284 282 281 279 278 278 277
133 138 139 136 130 118 123 24 354 1 13 13 4 347 339 339 339 337 334 332 331 331 330 328 327 324 322 322 321 320 319 317 316 314 310 305 300 297 296 297 298 299 300 300 300 300 299 297 297 296 296 296 296 296 296 296 296 296 296 297 298 299 301 302 303 303 303 302 300 298 296 296 295 294 293 292 290 288 285 283 282 280 279 278 278 277
131 138 144 144 138 137 205 165 288 330 358 6 6 358 344 340 340 339 333 325 320 320 320 318 316 314 313 315 316 317 315 313 313 312 309 302 295 292 291 293 295 296 297 297 297 296 295 295 294 294 294 294 294 293 293 294 294 295 297 298 300 302 304 305 306 307 306 305 303 301 300 298 297 296 295 294 291 289 286 284 282 281 280 279 278 277
129 135 146 160 160 168 237 193 264 317 353 3 2 360 6 7 354 343 332 323 317 313 309 306 304 303 305 308 310 311 310 307 308 309 309 305 299 295 294 294 295 296 297 297 297 296 295 294 294 293 293 293 292 292 293 293 295 297 299 301 303 305 306 307 307 307 307 306 304 302 300 299 298 297 296 294 292 290 288 286 284 282 281 280 279 278
129 134 161 188 199 203 219 231 290 330 357 2 352 342 357 360 351 340 325 315 312 309 305 302 298 295 295 297 301 303 304 299 297 299 301 300 300 299 299 298 298 299 300 299 299 298 297 296 296 295 295 294 294 294 295 296 298 300 302 304 305 306 306 307 307 306 306 304 303 301 300 298 297 297 296 295 294 292 290 288 286 284 283 281 280 279
140 157 203 222 219 215 216 246 283 308 330 343 343 338 333 332 330 325 311 302 301 303 304 303 300 295 290 288 290 293 294 292 290 290 291 292 294 296 297 296 297 297 298 298 296 296 297 298 298 299 299 299 298 299 300 301 302 302 303 303 303 303 304 304 304 304 303 303 302 300 299 297 297 296 296 296 295 293 292 290 288 286 284 282 281 279
161 183 218 230 226 222 231 276 299 304 311 329 337 330 317 314 313 310 302 298 297 301 303 301 300 298 293 284 280 281 282 285 288 290 289 288 290 292 293 292 291 292 292 292 290 288 290 293 296 298 300 301 302 303 303 303 303 302 301 301 301 302 303 303 302 301 301 300 300 298 297 296 296 296 296 296 295 293 292 291 289 287 285 283 282 280
180 213 242 249 243 243 254 287 300 305 311 317 317 313 308 307 305 303 302 301 303 306 306 303 302 301 297 287 274 270 277 282 287 291 293 291 290 290 291 288 287 287 288 287 285 284 284 285 286 289 292 296 300 303 305 305 304 303 303 304 304 304 303 302 301 300 299 298 297 296 296 295 295 295 295 295 294 293 292 291 289 287 285 284 283 281
223 245 257 263 264 265 271 287 295 298 301 305 307 308 309 306 305 306 305 305 306 308 307 307 307 306 301 292 282 279 284 290 294 296 298 296 293 291 288 284 283 283 284 283 283 282 281 278 277 278 280 285 292 299 304 306 307 307 307 307 306 306 304 303 301 300 298 297 296 295 295 294 294 294 294 295 294 294 293 291 289 288 286 284 283 282
246 259 265 272 276 277 284 287 289 291 296 300 300 302 303 303 305 306 305 304 305 306 304 306 308 308 305 301 293 291 302 309 307 302 300 296 295 292 287 280 278 280 281 281 280 279 278 275 273 272 273 276 282 290 297 302 306 308 308 307 307 306 305 304 302 301 299 298 297 295 294 294 294 294 294 295 295 294 294 292 290 288 286 285 283 282
244 253 265 272 277 284 292 294 295 295 298 300 303 303 301 299 299 299 298 299 300 301 300 300 299 297 298 297 294 300 312 315 310 303 299 295 294 294 290 284 280 277 277 278 278 277 275 273 272 271 272 273 277 283 290 297 302 305 306 307 306 306 305 304 302 301 300 299 298 296 295 294 294 294 295 295 295 295 294 293 291 289 287 285 284 283
259 262 267 275 280 288 291 293 296 301 304 306 308 307 304 300 298 295 293 293 293 292 293 293 291 289 289 288 291 298 307 309 305 301 297 295 295 296 295 289 282 278 278 278 278 278 277 276 274 273 274 275 278 282 287 293 298 301 303 304 305 305 304 303 302 301 301 300 299 298 297 296 296 295 296 296 296 295 295 293 292 290 287 286 285 284
271 271 271 280 287 290 291 293 298 304 307 308 308 305 302 300 298 295 292 292 291 289 289 289 287 286 287 287 290 296 304 306 304 300 297 295 295 297 297 292 286 284 284 284 284 284 283 282 282 281 280 279 280 281 285 289 294 298 301 302 303 304 304 303 302 301 301 300 300 299 298 297 297 297 297 297 297 296 295 294 292 290 289 287 286 285
276 275 276 282 287 290 290 295 300 304 305 306 304 300 297 296 295 293 292 293 292 291 290 287 286 286 289 291 293 297 302 304 302 300 299 297 295 295 297 294 290 289 289 290 290 290 288 287 287 287 286 285 284 283 284 287 292 296 300 302 304 304 304 304 303 302 301 301 300 300 299 298 297 297 297 297 298 297 297 295 294 292 291 290 288 287
275 279 282 285 284 283 285 291 297 299 300 298 294 291 291 291 291 292 293 294 294 293 291 288 287 288 290 290 291 293 296 296 294 295 296 295 293 294 297 296 294 292 292 293 293 292 290 289 289 289 289 288 287 286 285 287 292 297 301 304 305 306 305 305 304 304 303 303 302 301 299 298 297 296 297 298 298 298 298 297 296 295 294 293 291 289
270 276 282 285 283 282 284 288 292 293 294 290 283 281 282 283 286 289 292 293 293 291 290 288 288 288 288 287 288 289 289 287 286 286 289 288 290 294 299 299 296 293 292 294 295 294 292 290 290 290 289 288 287 286 286 287 291 296 301 304 306 307 306 306 306 305 305 304 303 302 300 299 297 297 297 298 298 298 298 300 301 301 299 297 294 292
271 274 279 281 281 281 284 285 289 290 290 287 282 279 279 279 280 281 285 287 288 288 288 289 289 288 287 286 286 286 286 284 281 281 283 284 288 293 298 299 297 294 292 294 295 295 293 291 290 290 289 288 287 287 287 287 290 294 300 304 306 307 306 306 305 305 304 304 303 303 302 300 299 299 299 299 298 297 297 299 301 302 301 300 298 296
276 276 277 278 280 280 281 282 283 284 285 285 284 283 284 283 282 283 284 284 284 285 287 287 287 287 288 289 289 289 290 288 282 279 281 285 288 291 294 296 295 293 293 295 295 294 293 291 291 291 291 290 289 289 289 288 288 290 295 300 303 305 305 304 303 302 302 302 302 302 302 302 301 301 300 298 297 296 296 297 298 299 299 299 298 296
274 274 275 275 276 276 277 277 277 277 278 280 282 284 287 287 287 286 284 284 284 285 287 287 287 288 291 292 292 292 295 293 286 280 280 285 288 290 292 294 293 292 292 294 295 294 292 292 292 293 292 291 290 290 289 288 287 287 290 294 299 301 301 300 299 298 297 296 297 298 300 301 301 300 298 296 295 294 294 295 296 297 297 297 296 294
275 274 272 272 273 273 272 272 272 273 274 275 278 282 287 289 288 287 285 285 287 288 289 290 291 292 293 292 291 292 295 294 290 284 282 283 284 287 291 293 293 292 293 295 295 294 292 291 292 292 291 291 290 290 289 289 288 288 289 291 294 296 297 296 295 293 292 292 293 295 297 298 299 298 296 294 293 292 292 292 293 295 296 295 293 291
284 282 281 280 278 276 275 274 274 274 275 275 277 280 284 286 285 283 282 285 289 289 288 289 290 292 292 291 291 292 293 291 288 285 284 281 280 283 289 293 294 294 296 297 296 294 291 290 290 291 290 290 290 290 290 291 291 292 292 291 291 291 291 290 290 290 291 292 294 296 298 298 298 297 295 294 293 292 292 293 294 294 294 292 289 287
294 293 291 288 287 285 283 281 279 278 277 277 278 279 280 279 278 278 280 285 288 287 285 284 285 286 288 290 291 291 290 287 285 283 283 280 279 282 290 294 294 296 300 301 300 297 291 289 289 290 290 291 291 291 292 293 294 294 293 291 289 287 286 286 287 289 291 294 297 300 301 301 301 299 297 295 294 294 295 296 296 295 293 290 287 286
296 295 293 291 290 289 287 284 282 281 280 279 279 278 276 274 272 273 277 281 282 283 282 282 282 284 286 290 292 290 286 284 285 288 289 286 284 287 294 295 294 296 302 304 303 299 294 292 291 290 291 293 293 294 295 295 295 294 293 291 288 286 285 285 286 289 292 296 299 302 303 304 303 302 300 298 296 295 296 297 297 295 291 289 287 286
291 290 287 286 286 285 283 282 281 281 281 280 279 276 273 270 269 271 274 275 276 277 278 279 280 281 283 286 288 286 283 284 291 303 307 297 290 290 296 296 294 295 299 300 301 302 300 297 295 294 294 295 295 295 294 293 292 291 290 289 288 286 286 286 288 290 292 294 297 299 300 301 301 300 299 297 295 294 294 296 295 292 289 288 287 286
290 289 288 287 286 285 283 282 281 281 281 280 278 275 272 270 269 270 271 271 271 272 273 275 276 277 277 276 274 273 277 283 289 298 302 295 291 291 294 293 293 293 294 291 287 287 295 297 296 296 296 295 294 293 291 290 289 288 289 289 288 288 288 289 289 290 290 291 292 293 295 295 296 295 294 293 293 292 292 293 291 289 287 286 285 285
290 289 289 288 287 286 284 283 282 282 282 281 279 277 275 273 271 271 270 269 269 269 269 272 274 275 275 273 272 272 275 279 284 290 293 291 290 291 292 291 290 291 292 289 284 282 282 286 291 294 294 293 292 291 290 289 288 288 289 289 289 289 290 290 291 290 291 292 291 291 291 291 292 292 292 292 292 291 292 292 290 287 284 283 282 283
291 290 289 289 287 286 285 284 284 283 282 282 281 280 278 276 275 273 271 270 269 268 267 268 271 273 275 276 275 275 275 278 282 287 290 290 289 290 291 290 289 292 294 291 288 285 283 284 287 291 293 293 292 290 291 291 290 289 288 288 288 289 291 292 293 293 293 293 292 291 291 291 291 291 292 292 292 292 292 292 290 287 283 280 279 280
293 292 291 289 288 286 286 285 284 283 283 283 282 281 280 278 277 275 274 273 271 269 268 268 268 269 272 275 277 278 278 280 283 287 288 289 289 290 290 287 288 290 292 290 289 288 287 286 287 289 293 294 293 291 290 290 291 290 288 287 287 289 291 294 295 296 295 294 293 291 291 291 291 291 291 291 291 291 291 291 290 288 285 282 279 278
294 293 291 290 288 287 286 286 286 287 286 285 284 283 281 279 278 276 275 275 274 273 271 270 269 268 269 270 272 275 278 281 284 285 285 286 287 287 286 284 285 287 288 287 287 287 288 288 288 289 290 292 292 292 292 292 292 291 290 290 290 291 293 295 297 297 297 295 293 292 292 292 291 291 290 289 289 290 290 291 290 290 288 287 284 281
292 291 289 289 289 289 290 290 290 290 288 287 286 284 283 281 280 279 278 277 276 275 275 274 272 271 269 268 269 272 275 279 281 281 281 281 282 282 282 282 283 283 283 283 285 286 286 287 288 289 288 287 288 291 294 295 295 293 292 293 293 293 293 295 297 297 296 294 293 292 291 290 290 290 289 289 289 289 289 290 290 290 291 290 288 285
288 287 287 288 289 291 292 291 290 288 287 286 286 286 285 284 283 282 281 279 278 277 276 276 275 273 271 269 270 271 273 275 277 277 278 278 278 278 279 280 280 280 278 279 281 283 283 284 285 288 288 286 286 288 291 294 295 294 293 293 293 292 293 295 295 295 293 292 291 290 289 287 287 287 288 289 289 289 288 288 288 290 291 291 290 288
286 286 286 287 287 287 286 285 285 285 285 285 286 286 287 286 284 283 282 281 279 278 277 276 276 275 274 273 273 273 273 274 274 275 276 275 275 275 276 277 279 279 277 276 277 278 279 279 280 282 286 288 288 288 289 290 291 292 293 294 293 291 292 293 294 293 291 291 289 288 286 285 284 284 286 288 288 287 285 286 287 288 290 290 289 288
285 285 285 285 284 283 282 282 283 284 285 286 287 287 287 287 285 284 283 281 280 280 279 278 277 277 277 276 276 275 275 274 275 275 275 275 275 274 274 275 277 278 278 276 274 273 274 275 277 278 280 283 286 288 289 288 288 290 293 294 292 291 292 292 291 291 290 290 288 286 285 285 283 283 283 285 286 285 283 285 287 288 289 288 287 288
285 285 285 285 285 284 283 284 285 285 286 286 287 286 286 285 286 286 285 284 284 283 283 283 281 281 280 280 279 278 278 277 277 276 275 276 277 277 276 275 275 276 276 274 273 271 271 273 275 277 277 279 282 284 285 285 286 287 288 288 288 289 290 289 289 289 289 287 285 284 285 285 284 283 284 284 283 282 284 285 285 287 289 286 283 283
284 284 284 286 286 286 286 287 287 286 285 285 284 283 283 283 284 285 286 286 286 286 286 286 286 285 284 283 282 281 280 279 278 278 278 279 279 280 279 277 275 274 274 275 275 274 273 273 274 275 277 278 279 281 282 283 284 284 283 282 284 286 287 286 286 287 287 284 284 286 288 288 287 285 284 283 282 283 287 287 286 285 285 284 281 279
283 283 284 285 286 286 287 287 286 285 283 282 280 279 280 280 281 282 283 284 284 285 285 284 284 285 285 285 285 284 283 282 281 280 280 280 280 280 279 277 273 272 274 275 276 277 276 273 273 273 274 275 275 276 278 281 282 281 279 279 281 283 284 285 287 287 284 282 283 287 289 288 286 283 282 282 283 284 286 287 286 284 282 281 279 276
284 284 285 285 285 286 285 284 283 282 280 279 278 278 278 278 278 279 280 280 281 282 283 283 283 283 282 283 285 285 285 285 283 282 280 279 278 278 277 275 273 272 272 272 274 276 277 275 273 273 274 274 272 272 274 277 278 278 278 279 278 277 277 281 284 284 282 282 284 287 288 288 285 282 282 282 283 285 287 287 286 285 282 280 277 274
284 284 284 284 283 283 281 280 280 279 278 278 278 278 278 277 277 277 278 278 280 280 279 282 283 283 281 282 284 286 287 287 286 284 282 279 277 275 275 273 272 271 268 267 268 270 273 275 275 275 274 271 269 269 272 274 276 277 277 278 277 277 276 277 279 281 282 285 286 288 289 288 287 285 283 283 284 285 287 287 286 284 282 279 275 273
280 280 281 281 281 280 279 279 279 279 278 277 276 277 277 277 276 276 275 277 278 279 279 280 280 279 280 282 284 286 287 287 287 287 285 283 280 278 275 273 271 269 267 264 264 266 266 269 271 273 273 271 269 269 271 273 275 275 276 276 276 276 277 277 278 280 282 284 286 287 289 289 288 285 284 284 285 286 287 286 285 283 281 278 274 272
277 278 278 278 278 278 278 279 278 278 277 276 276 277 277 277 275 274 274 274 276 277 278 277 276 275 276 279 282 284 285 286 287 287 287 286 285 283 280 277 275 272 268 265 263 263 265 265 266 267 269 270 271 272 272 273 273 274 275 276 276 275 276 277 278 279 280 281 283 285 287 287 286 284 284 286 287 288 288 288 285 282 280 276 273 271
275 277 277 277 277 277 278 278 278 277 276 276 277 277 277 277 276 275 274 274 273 274 275 274 273 274 275 277 279 280 282 284 285 286 287 287 286 285 283 280 277 274 271 269 267 266 265 265 264 263 264 265 268 271 272 272 272 272 273 273 274 273 273 275 277 279 280 281 282 283 283 283 282 283 286 288 289 289 289 289 287 284 281 276 273 271
276 277 278 279 279 279 278 278 277 276 275 276 277 277 277 276 275 273 272 272 272 272 273 273 274 274 275 277 278 279 280 281 282 284 285 286 286 285 283 281 279 278 276 273 271 269 268 266 264 261 259 258 260 264 267 268 269 270 271 271 271 271 272 274 277 279 281 282 282 282 281 279 279 281 285 287 288 288 289 288 287 285 282 278 275 272
278 278 278 278 277 276 276 275 275 274 274 274 276 276 277 277 275 273 271 271 271 271 271 271 272 273 274 276 278 279 279 280 281 282 283 283 283 282 281 280 279 279 279 277 274 272 271 270 267 263 259 255 254 255 259 263 265 266 268 268 268 268 270 273 276 278 280 281 281 281 280 279 279 281 282 283 284 285 286 286 285 284 282 280 277 274
277 276 275 274 273 272 273 273 274 274 275 275 276 277 278 278 277 275 273 271 270 269 268 269 270 271 272 274 276 277 278 279 279 279 280 279 279 278 277 276 276 275 275 275 275 275 275 276 275 272 268 259 253 251 252 254 258 262 265 265 266 267 269 272 275 277 278 278 278 278 279 279 280 280 280 280 281 282 283 283 283 283 283 282 281 278